Regional Weather Roundup
Issued by NWS

Home | Current Version | Previous Version | Graphics & Text | Print | Product List | Glossary On
Versions: 1 2 3 4 5 6 7 8 9 10 11 12 13 14 15 16 17 18 19 20 21 22 23 24 25 26 27 28 29 30 31 32 33 34 35 36 37 38 39 40 41 42 43 44
000
ASUS45 KBOU 250310
RWRCO

WEATHER ROUNDUP FOR COLORADO
NATIONAL WEATHER SERVICE DENVER/BOULDER CO
800 PM MST SAT FEB 24 2018

NOTE: "FAIR" INDICATES FEW OR NO CLOUDS BELOW 12000 FEET WITH NO
SIGNIFICANT WEATHER AND/OR OBSTRUCTIONS TO VISIBILITY.

COZ001>005-013-030-031-250400-
...NORTHWEST COLORADO...

CITY           SKY/WX    TMP DP  RH WIND       PRES   REMARKS
CRAIG          LGT SNOW  18  14  84 W3        29.91R VSB 1
HAYDEN         LGT SNOW  16  13  88 N7        29.90  FOG     WCI   6
MEEKER         CLOUDY    22  10  60 W8        29.89R WCI  12
RANGELY        CLOUDY    25  15  64 W10G20    29.94R WCI  15
RABBIT EARS PA LGT SNOW N/A N/A N/A W6        29.70R VSB 1
STEAMBOAT SPGS CLOUDY    14   7  73 CALM      29.87R
WALDEN         CLOUDY    12   0  57 S13       29.79S WCI  -3
$$

COZ006>008-011-250400-
...WEST CENTRAL VALLEYS...

CITY           SKY/WX    TMP DP  RH WIND       PRES   REMARKS
GRAND JUNCTION CLOUDY    30  14  51 CALM      29.94S
MONTROSE       CLOUDY    28   9  44 NW5       29.96R WCI  23
EAGLE          FLURRIES  21   9  59 W7        29.91R WCI  12
RIFLE          CLOUDY    27   8  44 VRB5      29.94R WCI  22
DELTA          CLOUDY    33   7  33 CALM      29.96R
NUCLA          CLOUDY    28  12  50 S12       29.97S WCI  18
$$

COZ017>023-064>068-250400-
...SOUTHWEST COLORADO...

CITY           SKY/WX    TMP DP  RH WIND       PRES   REMARKS
DURANGO        MOCLDY    24   8  50 SE3       29.95R
CORTEZ         FAIR      27   8  44 CALM      29.96S
PAGOSA SPRINGS FAIR      18   1  47 CALM      29.95S
TELLURIDE      CLOUDY    19  -1  41 SE5       29.88R WCI  12
WOLF CREEK PAS   N/A      0  -2  92 S29G37    29.80S WCI -26
$$

COZ009-010-012-014-032>034-037-058>063-250400-
...CENTRAL COLORADO...

CITY           SKY/WX    TMP DP  RH WIND       PRES   REMARKS
ASPEN          CLOUDY    13   4  67 SW6       29.83F WCI   4
BUENA VISTA    MOCLDY    20  -6  31 W16G24    29.80F WCI   6
COPPER MTN     CLOUDY     5  -6  61 SW13G23   29.67F HAZE    WCI -12
BERTHOUD PASS  CLOUDY    -6 -17  59 W35G45    29.59F WCI -35
COTTONWOOD PAS CLOUDY    18   0  45 N8        29.76S WCI   7
GUNNISON       CLOUDY    19   4  51 SE3       29.87R
GRANBY         CLOUDY    14   0  53 SW3       29.81R
KREMMLING      CLOUDY    21   5  49 NW3       29.84S
LEADVILLE      CLOUDY     5  -4  66 NE6       29.74R WCI  -6
MONARCH PASS   CLOUDY     1  -6  71 SW23G30   29.82S WCI -21
SALIDA         FAIR      24  -3  30 SW12      29.90S WCI  13
SUNLIGHT       LGT SNOW   3   0  85 SW16G25   29.78S VSB 1   WCI -16
WILKERSON PASS CLOUDY     5  -8  56 SW17G24   29.69S WCI -14
$$

COZ069>075-250400-
...SAN LUIS VALLEY/SANGRE DE CRISTO MOUNTAINS...

CITY           SKY/WX    TMP DP  RH WIND       PRES   REMARKS
ALAMOSA        FAIR      20   0  41 S9        29.88R WCI   9
DEL NORTE      FAIR      21   0  40 SW16      29.86S WCI   7
LA VETA PASS   FAIR      12  -4  48 S25G40    29.89R WCI  -8
SAGUACHE       FAIR      19   0  42 NW13      29.85S WCI   7
$$

COZ035-036-038>040-250400-
...NORTHERN COLORADO FRONT RANGE...

CITY           SKY/WX    TMP DP  RH WIND       PRES   REMARKS
DENVER INTL AP FAIR      29   0  28 W15       29.78R WCI  18
AURORA         MOCLDY    21   4  47 S6        29.80R WCI  13
FRONT RANGE AP PTCLDY    28   5  37 E5        29.80R WCI  23
ERIE MUNI ARPT FAIR      31  -2  23 W16G30    29.86R WCI  20
BOULDER MUN AP FAIR      30   0  27 CALM      29.78R
CENTENNIAL     FAIR      25   6  44 S8        29.78R WCI  16
BROOMFIELD     PTCLDY    28   0  29 N7        29.79R WCI  21
FORT COLLINS   FAIR      24   4  42 NW12      29.81R WCI  13
LONGMONT       NOT AVBL
$$

COZ041-046-047-076>085-087-088-250400-
...PIKES PEAK/PALMER DIVIDE AND SOUTHERN FOOTHILLS...

CITY           SKY/WX    TMP DP  RH WIND       PRES   REMARKS
COLO. SPRINGS  MOCLDY    31  -6  20 NW5       29.78R WCI  26
A. F. ACADEMY  FAIR      26  -4  27 E6        29.76S WCI  19
SCHRIEVER AFB  NOT AVBL
CHEYENNE MTN   FAIR      26  -5  25 W3        29.72R
ELLICOTT         N/A    N/A N/A N/A E12       29.78R
FALCON         FAIR      23  -6  28 CALM      29.79R
FORT CARSON    FAIR      32  -5  20 E7        29.78R WCI  25
LIMON          FAIR      15   8  73 N5        29.82R WCI   8
MONUMENT HILL  FAIR      18   3  53 CALM      29.79R
CANON CITY     CLEAR     32  -2  23 W9        29.79R WCI  24
WALSENBURG     NOT AVBL
TRINIDAD       FAIR      28  -4  25 NE6       29.80S WCI  22
$$

COZ042>045-048>051-090-091-250400-
...NORTHEAST COLORADO...

CITY           SKY/WX    TMP DP  RH WIND       PRES   REMARKS
GREELEY ARPT   FAIR      26   7  44 N3        29.82R
AKRON          FAIR      23   8  52 N12       29.80S WCI  12
BURLINGTON     FAIR      25  10  53 N7        29.86R WCI  17
WRAY           FAIR      28  14  54 N9G16     29.84R WCI  20
YUMA           NOT AVBL
STERLING       FAIR      28  10  47 NW16      29.81F WCI  17
HOLYOKE        FAIR      27  12  54 W3        29.84S
FORT MORGAN    FAIR      26   5  39 NW15      29.82R WCI  14
$$

COZ086-089-092>099-250400-
...SOUTHEAST COLORADO...

CITY           SKY/WX    TMP DP  RH WIND       PRES   REMARKS
PUEBLO         FAIR      34  -2  21 NW10      29.79S WCI  26
LA JUNTA       FAIR      33   1  25 S6        29.81R WCI  28
LAMAR          FAIR      28   5  37 NE8       29.84R WCI  20
SPRINGFIELD      N/A     20  -2  38 CALM      29.84R
$$




USA.gov is the U.S. government's official web portal to all federal, state and local government web resources and services.